www.pogodaiklimat.ru
ПОГОДА в Ланкастере
Время
и дата
11:56 29.01
12:56 29.01
13:25 29.01
13:56 29.01
14:56 29.01
15:56 29.01
16:56 29.01
17:56 29.01
18:56 29.01
19:56 29.01
20:56 29.01
21:56 29.01
22:56 29.01
23:56 29.01
00:56 30.01
01:56 30.01
02:56 30.01
03:56 30.01
04:07 30.01
04:56 30.01
05:05 30.01
05:42 30.01
05:56 30.01
06:56 30.01
07:56 30.01
08:32 30.01
08:56 30.01
09:38 30.01
09:56 30.01
10:38 30.01
10:56 30.01
11:17 30.01
11:56 30.01
12:56 30.01
13:56 30.01
14:56 30.01
15:56 30.01
16:56 30.01
17:56 30.01
18:56 30.01
19:56 30.01
20:56 30.01
21:56 30.01
22:56 30.01
23:56 30.01
00:56 31.01
01:56 31.01
02:56 31.01
Ветер
(напр.,м/с)
Видим. Явления Облачность Т
(С)
Тd
(С)
f
(%)
Тe
(С)
Тes
(С)
Комфортность P
(гПа)
Po
(гПа)
Тmin
(С)
Tmax
(С)
R
(мм)
R24
(мм)
S
(см)
ЮЗ 11
{14}
16 км ясно +11.7 +2.8 54 +8 +8 1009.5 926.6
ЮЗ 10
{14}
16 км 10/10 840 м +10.6 +3.3 61 +7 +7 1009.1 926.3
ЮЗ 10 16 км 8/8 600 м +10.6 +4.4 65 +7 +7 926.0
ЮЗ 13
{16}
16 км 2/2 720 м +10.6 +2.8 58 +6 +6 1008.9 926.0
ЮЗ 10 16 км ясно +10.0 +2.8 61 +6 +6 1008.7 925.7
ЮЗ 9
{12}
16 км 5/5 1950 м +8.9 +2.2 63 +5 +5 1009.3 926.0 +8.9 +11.7
Ю 8 16 км 10/2 1020 m
[Ac]
+8.3 +2.8 68 +4 +4 1009.6 926.3
ЮЗ 8 16 км 8/5 1410 m
[Ac]
+7.8 +1.1 63 +3 +3 1010.2 927.0
ЮЗ 7
{11}
16 км ясно +7.2 +0.6 63 +3 +3 1010.4 927.0
ЮЗ 5 16 км ясно +5.6 +0.6 70 +1 +1 1010.9 927.3
З 5 16 км ясно +4.4 +0.6 76 0 0 1011.3 927.9
З 7 16 км ясно +4.4 +0.6 76 -1 -1 1011.4 927.9 +3.9 +9.4
З 6 16 км 10/0 2400 m
[Ac]
+5.0 +1.1 76 0 0 1011.7 928.2
ЮЗ 5 16 км 10/8 1470 m
[Ac]
+5.0 +1.7 79 0 0 1011.7 928.2
ЮЗ 3 16 км 10/10 1440 м +5.0 +2.2 82 +2 +2 1012.0 928.5
З 4 16 км 10/8 1170 m
[Ac]
+5.0 +1.1 76 +1 +1 1012.2 928.5
В 2 16 км слабый дождь 10/10 1440 m
[Ns]
+4.4 +2.2 86 +2 +2 1012.8 929.1
В 3 14 км слабый дождь 10/10 570 m
[Ns]
+3.9 +1.7 86 0 0 1013.3 929.4 +3.9 +5.6 0.8 0.8
В 3 16 км 10/10 570 м +3.3 +1.7 89 -1 -1 929.4
В 2 14 км слабый дождь 10/10 390 m
[Ns]
+3.9 +2.2 89 +1 +1 1013.9 930.1
СВ 3 16 км слабый дождь 10/8 390 m
[Ac Ns]
+3.9 +2.2 89 0 0 930.1
С 3 16 км 10/8 450 m
[Ac]
+3.9 +2.2 89 0 0 930.4
С 3 16 км 10/10 450 м +3.9 +1.7 86 0 0 1014.5 930.4
С 2 16 км 10/10 570 м +3.9 +2.2 89 +1 +1 1015.3 931.0 0.8
штиль 0 16 км 10/8 690 m
[Ac]
+4.4 +1.1 79 +4 +4 1015.9 931.6
штиль 0 16 км 10/10 870 м +5.0 +0.6 73 +4 +4 932.2
СВ 4 16 км 10/10 810 м +5.0 +0.6 73 +1 +1 1016.8 932.5
СВ 6 16 км 10/10 930 м +5.0 0.0 70 0 0 932.9
СВ 6 16 км 10/10 990 м +5.6 0.0 67 +1 +1 1017.6 933.2 +3.3 +5.6 0.8
С 6 16 км 10/10 870 м +5.0 -0.6 67 0 0 933.2
СВ 6 16 км 10/10 870 м +5.6 -0.6 64 +1 +1 1017.8 933.5
СВ 6 16 км 10/10 900 м +6.1 -0.6 62 +2 +2 933.5
СВ 6 16 км 10/10 1140 м +7.8 0.0 58 +4 +4 1016.9 932.9
СВ 8 16 км 10/10 1200 м +9.4 +0.6 54 +6 +6 1015.6 931.6
СВ 7 16 км 10/10 1320 м +10.0 -0.6 48 +7 +7 1015.3 931.3
СВ 7 16 км 10/10 1500 м +10.6 -1.1 44 +8 +8 1015.2 931.3
СВ 8 16 км 10/0 3300 m
[Ac]
+11.1 -1.1 43 +8 +8 1015.0 931.3 +5.0 +11.1
СВ 7 16 км 5/0 3600 m
[Ac]
+9.4 -2.2 44 +6 +6 1015.7 931.6
СВ 6 16 км ясно +7.2 -2.2 51 +3 +3 1016.4 932.2
В 5 16 км ясно +5.6 -2.2 57 +2 +2 1017.1 932.5
СВ 4 16 км ясно +3.9 -2.8 62 0 0 1018.3 933.8
СВ 4 16 км ясно +3.9 -3.3 59 0 0 1019.2 934.4
В 4 16 км ясно +3.3 -4.4 57 -1 -1 1019.7 935.0 +3.3 +11.1
В 2 16 км ясно +1.1 -4.4 67 -2 -2 1020.6 935.7
штиль 0 16 км ясно +1.1 -5.0 64 0 0 1020.5 935.7
штиль 0 16 км ясно +0.6 -4.4 69 0 0 1020.5 935.7
СЗ 2 16 км ясно -1.7 -5.6 75 -5 -5 1020.7 936.0
С 3 16 км ясно -2.8 -6.1 78 -8 -8 1021.3 936.3
Местоположение метеостанции General William J. Fox Airfield Airport: широта 34.7408 долгота -118.2189 высота над уровнем моря 715 м.
В архиве по умолчанию представлена погода в Ланкастере за последние 1-2 суток. Обновление информации о фактической погоде в базе происходит ежечасно! Архивные данные за месяц целиком и за предыдущие месяцы Вы можете получить, выбрав интересующий диапазон дат из раскрывающегося списка и нажав кнопку "Ввод!".
Внимание! Архив погоды МЕТАР в базе сайта по станциям, не включенным в климатический монитор, хранится не более 60 дней. Нет смысла пытаться выбрать более раннюю дату.
*Определитесь, кто Вы:
Внимание! Время в таблицах - местное (без учета летнего времени). Для получения всемирного времени необходимо вычесть поправку, которая равна -8 ч.
Смотрите также архив погоды в соседних городах и на ближайших метеорологических станциях:
Партнеры нашего сайта:      
Пояснения к столбцам:
  • Ветер - указаны скорость ветра в м/с - средняя за 10 мин, порывы в срок и между сроками (в фигурных скобках) и направление, откуда дует ветер: С - северный,
  • СВ - северо-восточный, В - восточный, ЮВ - юго-восточный, Ю - южный, ЮЗ - юго-западный, З - западный, СЗ - северо-западный.
  • Видимость - горизонтальная дальность видимости в метрах или километрах. При видимости от 1 до 10 км при отсутствии осадков обычно наблюдается дымка, при ухудшении видимости до 1 км и менее - туман. В сухую погоду видимость может ухудшаться дымом, пылью или мглою.
  • Явления - указаны атмосферные явления, наблюдавшиеся в срок или в последний час перед сроком; фигурными скобками обозначены явления, наблюдавшиеся между сроками (за 1-3 часа до срока); квадратными скобками обозначены град или гололедные отложения с указанием их диаметра в мм.
  • Облачность - указаны через наклонную черту общая и нижняя облачность в баллах и высота нижней границы облаков в метрах; квадратными скобками обозначены формы облаков: Ci - перистые, Cs - перисто-слоистые, Cc - перисто-кучевые, Ac - высококучевые, As - высокослоистые, Sc - слоисто-кучевые, Ns - слоисто-дождевые, Cu - кучевые, Cb - кучево-дождевые. Подробнее классификацию облаков см. в Атласе облаков (PDF).
  • T - Температура воздуха - температура, измеренная на высоте 2 м над землей.
  • Td - Температура точки росы - температура, при понижении до которой содержащийся в воздухе водяной пар достигнет насыщения.
  • f - Относительная влажность воздуха - влажноcть воздуха, измеренная на высоте 2 м над землей.
  • Te - Эффективная температура - температура, которую ощущает одетый по сезону человек в тени. Характеристика душности погоды. При расчете учитывается влияние влажности воздуха и скорости ветра на теплоощущения человека.
  • Tes - Эффективная температура на солнце - температура, которую ощущает человек, с поправкой на солнечный нагрев. Характеристика знойности погоды. Зависит от высоты солнца над горизонтом, облачности и скорости ветра. Ночью, в пасмурную погоду, а также при ветре 12 м/с и более поправка равна нулю.
  • P - Атмосферное давление - приведенное к уровню моря атмосферное давление.
  • Po - Атмосферное давление - измеренное на уровне метеостанции атмосферное давление.
  • Tmin - Минимальная температура - минимум температуры воздуха на высоте 2 м над землей.
  • Tmax - Максимальная температура - максимум температуры воздуха на высоте 2 м над землей.
  • R - Количество осадков - Количество выпавших осадков за период времени, мм. При наведении курсора мыши на число - период времени, за который выпало указанное количество осадков.
  • R24 - Количество осадков - Количество выпавших осадков за 24 часа, мм.
  • S - Снежный покров - Высота снежного покрова, см. При наведении курсора мыши на число - состояние снежного покрова и степень покрытия местности в баллах.